Hourly Data Report for June 10, 2004

SHERBROOKE A
QUEBEC

45°26'00.000" N
71°41'00.000" W
241.40 m
7028124
71610
YSC

Download Data

Hourly Data (June 2004)
Hourly Data Report for June 10, 2004
TIME
LST
Temp Definition
°C
Dew Point Definition
°C
Rel Hum Definition
%
Precip. Amount Definition
mm

Wind Dir Definition
10's deg

Wind Spd Definition
km/h
Visibility Definition
km
Stn Press Definition
kPa
Hmdx Definition


Wind Chill Definition


Weather Definition


00:00 14.4 3.7 49   34 9 15.0 98.41      
01:00 13.3 3.5 51   34 9 15.0 98.43      
02:00 12.1 3.7 56   36 6 15.0 98.48      
03:00 10.9 2.8 57   34 11 15.0 98.48      
04:00 9.4 2.4 62   33 7 15.0 98.55      
05:00 8.4 3.1 69   31 7 15.0 98.63      
06:00 9.4 2.2 61   33 13 15.0 98.64      
07:00 11.1 2.4 55   33 13 24.1 98.68     Mainly Clear
08:00 11.8 2.0 51   31 11 24.1 98.64     Mainly Clear
09:00 12.9 2.4 49   31 15 24.1 98.63     Mainly Clear
10:00 14.2 4.3 51   30 17 24.1 98.63     Mainly Clear
11:00 14.9 3.7 47   28 24 24.1 98.59     Mainly Clear
12:00 15.7 4.1 46   30 28 24.1 98.56     Mainly Clear
13:00 16.3 3.4 42   30 22 24.1 98.51     Mainly Clear
14:00 16.3 3.4 42   27 24 24.1 98.47     Mainly Clear
15:00 17.0 2.1 37   30 17 24.1 98.45     Mainly Clear
16:00 17.0 0.1 32   31 22 24.1 98.41     Clear
17:00 16.8 -0.2 31   30 22 15.0 98.38      
18:00 16.3 -0.5 32   31 15 15.0 98.37      
19:00 13.5 0.5 41   29 11 15.0 98.39      
20:00 8.2 2.9 69   25 4 15.0 98.40      
21:00 7.6 1.7 66   31 6 15.0 98.49      
22:00 4.7 1.2 78   28 4 15.0 98.51      
23:00 6.5 0.1 64   29 6 15.0 98.57      

Notes on Data Quality.

Legend

  • E = Estimated
  • M = Missing
  • NA = Not Available*
  • [empty] = Indicates an unobserved value
Date modified: